Regional Weather Roundup
Issued by NWS Northern Indiana

Home | Current Version | Previous Version | Text Only | Print | Product List | Glossary On
Versions: 1 2 3 4 5 6 7 8 9 10 11 12 13 14 15 16 17 18 19 20 21 22 23 24 25 26 27 28 29 30 31 32 33 34 35 36 37 38 39 40 41 42 43 44 45 46 47 48 49 50
000
ASUS43 KIWX 220410
RWRIWX

KIWX WEATHER ROUNDUP
NATIONAL WEATHER SERVICE NORTHERN INDIANA
1100 PM EST SUN DEC 21 2014

NOTE: "FAIR" INDICATES FEW OR NO CLOUDS BELOW 12,000 FEET WITH NO
SIGNIFICANT WEATHER AND/OR OBSTRUCTIONS TO VISIBILITY.

* THESE STATIONS ARE NOT UNDER NWS QUALITY CONTROL. THEY ALSO MAY NOT
  REPORT WEATHER SUCH AS PRECIPITATION OR FOG.

INZ001>027-220500-
NORTHERN INDIANA

CITY           SKY/WX    TMP DP  RH WIND       PRES   REMARKS
GARY*          PTCLDY    34  26  72 SE10      30.06F WCI  26
VALPARAISO     PTCLDY    30  26  85 SE9       30.08F WCI  22
MICHIGAN CITY* PTCLDY    32  25  74 SE6       30.08F WCI  26
LAPORTE*       MOCLDY    32  29  88 SE6       30.08F FOG     WCI  26
KNOX*          PTCLDY    31  24  76 SE10      30.08F WCI  22
SOUTH BEND     PTCLDY    32  25  75 SE12      30.10  WCI  23
GOSHEN         PTCLDY    29  25  85 SE9       30.11F WCI  20
MONTICELLO*    PTCLDY    31  28  88 SE3       30.08S
LOGANSPORT*    PTCLDY    30  27  86 SE8       30.10F FOG     WCI  23
ROCHESTER*     PTCLDY    32  30  93 SE10      30.10F FOG     WCI  24
WARSAW*        PTCLDY    30  27  86 SE5       30.11F FOG     WCI  25
ANGOLA*        CLEAR     27  25  93 SE7       30.13F WCI  19
FORT WAYNE     PTCLDY    28  24  85 E5        30.14F WCI  23
HUNTINGTON*    MOCLDY    28  25  88 SE5       30.12F WCI  23
PERU/GRISSOM   PTCLDY    30  30 100 SE9       30.09F WCI  22
MARION*        MOCLDY    29  25  84 SE8       30.10F WCI  22

$$
INZ028>050-220500-
CENTRAL INDIANA

CITY           SKY/WX    TMP DP  RH WIND       PRES   REMARKS
LAFAYETTE      PTCLDY    28  25  88 E6        30.08F WCI  22
KOKOMO*        PTCLDY    30  25  80 SE7       30.09F WCI  23
MUNCIE*        MOCLDY    30  25  81 SE12      30.10F WCI  20
INDIANAPOLIS   MOCLDY    29  25  85 SE8       30.09R WCI  21

$$
MIZ043>046-050>051-056>058-064>065-071>073-077>080-220500-
SOUTHWEST LOWER MICHIGAN

CITY           SKY/WX    TMP DP  RH WIND       PRES   REMARKS
BATTLE CREEK   CLEAR     30  24  78 SE8       30.13F WCI  22
BENTON HARBOR  PTCLDY    31  26  82 SE10      30.08F WCI  22
COLDWATER*     CLEAR     29  25  84 MISG      30.13F
HILLSDALE*     CLEAR     28  26  91 SE9       30.13F WCI  19
HOLLAND        PTCLDY    33  25  72 SE9       30.10F WCI  25
GRAND RAPIDS   MOCLDY    30  24  78 SE9       30.12F HAZE    WCI  22
KALAMAZOO      MOCLDY    30  25  81 SE6       30.13F HAZE    WCI  24
STURGIS*       CLEAR     28  25  86 SE9       30.12S WCI  20
THREE RIVERS*  FAIR      29  26  86 SE6       30.13S FOG     WCI  23

$$
OHZ001>008-015>018-024>025-220500-
NORTHWEST OHIO

CITY           SKY/WX    TMP DP  RH WIND       PRES   REMARKS
WAUSEON*       FAIR      27  25  93 E9        30.17S WCI  17
DEFIANCE       CLEAR     27  22  81 E6        30.17F WCI  20
FINDLAY        CLEAR     29  22  75 E7        30.16F WCI  22
TOLEDO EXPRESS CLEAR     26  22  84 E5        30.18F FOG     WCI  20
TOLEDO METCALF PTCLDY    25  20  81 E8        30.21S WCI  16
LIMA           CLEAR     30  23  75 SE8       30.14F WCI  22

$$
AND FOR LAKE MICHIGAN COASTAL AND OPEN LAKE BUOY OBSERVATIONS

STATION/POSITION TEMP    WIND        PRES    VSBY  WAVE
                 AIR SEA DIR/SP/G                  HT/PER
                 (F)     (DEG/KT/KT) (MB)    (MI)  (FT/S)
CALUMET HARBOR    33     150/  9/ 13 1016.3F
SAINT JOSEPH      33     130/  3/  7 1019.0F

$$
&&


USA.gov is the U.S. government's official web portal to all federal, state and local government web resources and services.